Westhampton Beach, NY

4:50 AM EDT on May 28, 2018 (GMT -0400)
The Gabreski

Weather History for KFOK - January, 2014

Change the Weather History Date:

Saturday, January 18, 2014

  Actual Average Record
Temperature  
Mean Temperature 38 °F -  
Max Temperature 46 °F 33 °F 57 °F (2006)
Min Temperature 28 °F 17 °F 0 °F (2003)
Degree Days  
Heating Degree Days 27    
Moisture  
Dew Point 31 °F    
Average Humidity 74    
Maximum Humidity 93    
Minimum Humidity 60    
Precipitation  
Precipitation 0.04 in - - ()
Sea Level Pressure  
Sea Level Pressure 29.74 in    
Wind  
Wind Speed 6 mph (WNW)    
Max Wind Speed 18 mph    
Max Gust Speed 26 mph    
Visibility 10 miles    
Events Rain    
Averages and records for this station are not official NWS values.
T = Trace of Precipitation, MM = Missing Value Source: NWS Daily Summary

Daily Weather History Graph

Daily Weather History Graph

Search for Another Location

Airport or City:

Astronomy

Jan. 18, 2014 Rise Set
Actual Time 7:11 AM EST 4:50 PM EST
Civil Twilight 6:41 AM EST 5:20 PM EST
Nautical Twilight 6:07 AM EST 5:54 PM EST
Astronomical Twilight 5:35 AM EST 6:27 PM EST
Moon 7:31 PM EST (1/18) 8:08 AM EST (1/18)
Length of Visible Light 10h 39m
Length of Day
9h 39m
Waning Gibbous, 94% of the Moon is Illuminated
Jan 18
Waning Gibbous
Jan 24
Last Quarter
Jan 30
New
Feb 6
First Quarter
Feb 14
Full

Hourly Weather History & Observations

Time (EST) Temp. Windchill Dew Point Humidity Pressure Visibility Wind Dir Wind Speed Gust Speed Precip Events Conditions
12:53 AM 34.0 °F - 30.9 °F 89% 29.90 in 8.0 mi Calm Calm - N/A   Overcast
1:53 AM 36.0 °F - 33.1 °F 89% 29.89 in 8.0 mi Calm Calm - N/A   Overcast
2:53 AM 35.1 °F - 33.1 °F 92% 29.87 in 6.0 mi Calm Calm - 0.00 in   Overcast
3:53 AM 39.0 °F 35.7 °F 34.0 °F 82% 29.83 in 10.0 mi East 4.6 mph - N/A   Overcast
4:53 AM 39.0 °F 36.8 °F 34.0 °F 82% 29.81 in 10.0 mi East 3.5 mph - N/A   Overcast
5:53 AM 39.9 °F 36.7 °F 33.1 °F 77% 29.79 in 10.0 mi East 4.6 mph - N/A   Overcast
6:53 AM 39.9 °F 35.1 °F 32.0 °F 73% 29.75 in 10.0 mi East 6.9 mph - N/A   Mostly Cloudy
7:53 AM 41.0 °F 37.1 °F 33.1 °F 73% 29.74 in 10.0 mi East 5.8 mph - N/A   Overcast
8:53 AM 42.1 °F 37.7 °F 32.0 °F 67% 29.72 in 10.0 mi ENE 6.9 mph - N/A   Mostly Cloudy
9:53 AM 42.1 °F 37.7 °F 32.0 °F 67% 29.72 in 10.0 mi NW 6.9 mph - 0.00 in Rain Light Rain
10:53 AM 39.9 °F 33.9 °F 35.1 °F 83% 29.68 in 9.0 mi NE 9.2 mph - 0.03 in Rain Light Rain
11:53 AM 44.1 °F 42.5 °F 42.1 °F 93% 29.65 in 10.0 mi Variable 3.5 mph - 0.01 in   Mostly Cloudy
12:03 PM 44.6 °F - 39.2 °F 81% 29.64 in 10.0 mi Calm Calm - N/A   Overcast
12:50 PM 46.4 °F 41.5 °F 39.2 °F 76% 29.62 in 10.0 mi SW 10.4 mph - N/A   Overcast
12:53 PM 45.0 °F 40.1 °F 39.0 °F 80% 29.62 in 10.0 mi SW 9.2 mph 16.1 mph N/A   Mostly Cloudy
1:53 PM 46.9 °F - 35.1 °F 63% 29.61 in 10.0 mi West 18.4 mph 23.0 mph N/A   Mostly Cloudy
2:29 PM 39.2 °F 31.6 °F 32.0 °F 75% 29.64 in 10.0 mi WNW 12.7 mph 23.0 mph N/A   Mostly Cloudy
2:53 PM 39.0 °F 30.3 °F 33.1 °F 79% 29.64 in 10.0 mi WNW 16.1 mph 20.7 mph N/A   Mostly Cloudy
3:53 PM 37.9 °F 31.5 °F 30.9 °F 76% 29.68 in 10.0 mi WNW 9.2 mph 20.7 mph N/A   Mostly Cloudy
4:22 PM 37.4 °F 28.9 °F 30.2 °F 75% 29.68 in 10.0 mi WNW 13.8 mph - N/A   Overcast
4:53 PM 37.0 °F 27.0 °F 30.0 °F 76% 29.72 in 10.0 mi West 18.4 mph 25.3 mph N/A   Overcast
5:53 PM 37.0 °F 28.1 °F 27.0 °F 67% 29.73 in 10.0 mi WNW 15.0 mph 26.5 mph N/A   Overcast
6:53 PM 35.1 °F 26.9 °F 23.0 °F 61% 29.74 in 10.0 mi West 11.5 mph - N/A   Overcast
7:53 PM 34.0 °F 26.6 °F 21.9 °F 61% 29.76 in 10.0 mi West 9.2 mph - N/A   Overcast
8:53 PM 33.1 °F 24.9 °F 21.9 °F 64% 29.79 in 10.0 mi West 10.4 mph - N/A   Overcast
9:53 PM 33.1 °F 23.9 °F 21.0 °F 61% 29.80 in 10.0 mi West 12.7 mph - N/A   Overcast
10:06 PM 33.8 °F 24.8 °F 21.2 °F 60% 29.79 in 10.0 mi West 12.7 mph 19.6 mph N/A   Overcast
10:53 PM 30.9 °F 23.5 °F 19.9 °F 64% 29.80 in 10.0 mi West 8.1 mph - N/A   Scattered Clouds
11:53 PM 28.0 °F 20.0 °F 19.0 °F 69% 29.82 in 10.0 mi West 8.1 mph - N/A   Clear